This demonstration page uses our WeatherBlox Daily Observations layout. Learn more.

Left ArrowRight Arrow

39.92423, -83.80882

Hourly Observations for June 21, 2022

Temp ( °F °C ) Dew Point ( °F °C ) Humidity (%) Winds ( mph kmh ) Pressure ( in mb ) Visibility ( mi km ) Precip ( " mm )
12:56 am 00:56 Clear 66 18.9 58 14.4 75 75 SW 8 13 30.13 1020 10 16 0.00 0.00
1:56 am 01:56 Clear 66 18.9 58 14.4 75 75 SW 8 13 30.12 1020 10 16 0.00 0.00
2:56 am 02:56 Clear 64 17.8 59 15 84 84 SSW 5 7 30.12 1020 10 16 0.08 2.03
3:56 am 03:56 Clear 60 15.6 60 15.6 100 100 SW 5 7 30.14 1021 10 16 0.00 0.00
4:56 am 04:56 Clear 62 16.7 60 15.6 93 93 SW 7 11 30.14 1021 10 16 0.00 0.00
5:56 am 05:56 Clear 54 12 N/A N/A SSE 5 7 30.17 1022 10 16 0.02 0.51
6:56 am 06:56 Sunny 61 16.1 61 16.1 100 100 S 6 9 30.19 1022 10 16 0.00 0.00
7:56 am 07:56 Sunny 66 18.9 60 15.6 81 81 S 5 7 30.19 1022 10 16 0.00 0.00
8:56 am 08:56 Sunny 72 22.2 60 15.6 66 66 SW 8 13 30.19 1022 10 16 0.00 0.00
9:56 am 09:56 Sunny 76 24.4 61 16.1 60 60 WSW 7 11 30.19 1022 10 16 0.00 0.00
10:56 am 10:56 Sunny 82 27.8 61 16.1 49 49 W 5 7 30.18 1022 10 16 0.00 0.00
11:56 am 11:56 Sunny 85 29.4 62 16.7 46 46 NW 7 11 30.17 1022 10 16 0.00 0.00
12:56 pm 12:56 Sunny 87 30.6 64 17.8 46 46 SW 7 11 30.15 1021 10 16 0.00 0.00
1:56 pm 13:56 Sunny 90 32.2 65 18.3 44 44 SW 9 15 30.14 1021 10 16 0.00 0.00
2:56 pm 14:56 Sunny 93 33.9 62 16.7 36 36 SW 15 24 30.12 1020 10 16 0.00 0.00
3:56 pm 15:56 Sunny 93 33.9 62 16.7 36 36 W 15 24 30.11 1020 10 16 0.00 0.00
4:56 pm 16:56 Sunny 94 34.4 61 16.1 33 33 WSW 16 26 30.09 1019 10 16 0.00 0.00
5:56 pm 17:56 Sunny 93 33.9 62 16.7 36 36 W 15 24 30.09 1019 10 16 0.00 0.00
6:56 pm 18:56 Sunny 91 32.8 62 16.7 38 38 WSW 13 20 30.06 1018 10 16 0.00 0.00
7:56 pm 19:56 Sunny 89 31.7 63 17.2 42 42 WSW 8 13 30.06 1018 10 16 0.00 0.00
8:56 pm 20:56 Sunny 84 28.9 63 17.2 49 49 SW 7 11 30.06 1018 10 16 0.00 0.00
9:56 pm 21:56 Clear 81 27.2 63 17.2 54 54 WSW 7 11 30.06 1018 10 16 0.00 0.00
10:56 pm 22:56 Clear 78 25.6 63 17.2 60 60 SW 8 13 30.05 1018 10 16 0.00 0.00
11:56 pm 23:56 Clear 74 23.3 64 17.8 71 71 WSW 7 11 30.06 1018 10 16 0.00 0.00

Powered by AerisWeather